DW0799 Weather Reports


Display with metric or nautical units.
time (UTC)temp
F
wind
direction
speed
MPH
gust
MPH
rain 1hr
in
rain 24hr
in
rain mn
in
humidity
%
barometer
mb
20200122101338 20 297 3.0 0.0 0.00 0.00 0.00 87 1027.4
20200122100833 20 349 4.0 0.0 0.00 0.00 0.00 87 1027.4
20200122100329 20 260 3.0 0.0 0.00 0.00 0.00 87 1027.4
20200122095837 20 244 3.0 0.0 0.00 0.00 0.00 87 1027.4
20200122095333 20 306 3.0 0.0 0.00 0.00 0.00 87 1027.4
20200122094849 20 170 3.0 0.0 0.00 0.00 0.00 87 1027.4
20200122094343 20 269 3.0 0.0 0.00 0.00 0.00 87 1027.4
20200122093841 20 215 4.0 0.0 0.00 0.00 0.00 87 1027.5
20200122093341 20 180 3.0 0.0 0.00 0.00 0.00 87 1027.6
20200122092841 20 244 3.0 0.0 0.00 0.00 0.00 87 1027.7
20200122092340 20 296 4.0 0.0 0.00 0.00 0.00 87 1027.8
20200122091336 20 250 4.0 0.0 0.00 0.00 0.00 87 1028.1
20200122090832 21 299 3.0 0.0 0.00 0.00 0.00 87 1028.1
20200122090347 21 263 3.0 0.0 0.00 0.00 0.00 87 1028.1
20200122085834 21 255 3.0 0.0 0.00 0.00 0.00 87 1028.3
20200122085351 21 344 3.0 0.0 0.00 0.00 0.00 87 1028.3
20200122084849 21 290 4.0 0.0 0.00 0.00 0.00 87 1028.3
20200122084343 21 259 3.0 0.0 0.00 0.00 0.00 87 1028.5
20200122083838 21 304 3.0 0.0 0.00 0.00 0.00 87 1028.5
20200122083339 21 265 3.0 0.0 0.00 0.00 0.00 87 1028.6
20200122082833 21 252 4.0 0.0 0.00 0.00 0.00 87 1028.6
20200122082348 21 274 4.0 0.0 0.00 0.00 0.00 87 1028.6
20200122081846 21 286 3.0 0.0 0.00 0.00 0.00 87 1028.8
20200122081340 21 223 3.0 0.0 0.00 0.00 0.00 87 1028.8
20200122080836 21 283 4.0 0.0 0.00 0.00 0.00 87 1028.8
20200122080332 21 262 3.0 0.0 0.00 0.00 0.00 87 1028.9
20200122075841 21 314 2.0 0.0 0.00 0.00 0.00 87 1029.0
20200122075340 21 94 2.0 0.0 0.00 0.00 0.00 87 1029.1
20200122074840 21 326 2.0 0.0 0.00 0.00 0.00 87 1029.0
20200122074339 21 310 3.0 0.0 0.00 0.00 0.00 87 1029.0
20200122073834 21 222 3.0 0.0 0.00 0.00 0.00 87 1029.0
20200122073332 21 284 3.0 0.0 0.00 0.00 0.00 87 1029.1
20200122072847 21 213 3.0 0.0 0.00 0.00 0.00 87 1029.1
20200122072341 21 274 3.0 0.0 0.00 0.00 0.00 87 1029.0
20200122071836 21 236 3.0 0.0 0.00 0.00 0.00 87 1029.1
20200122071349 21 228 3.0 0.0 0.00 0.00 0.00 87 1029.0
20200122070835 21 281 2.0 0.0 0.00 0.00 0.00 87 1029.0
20200122070327 21 214 3.0 0.0 0.00 0.00 0.00 87 1029.0
20200122065840 21 277 3.0 0.0 0.00 0.00 0.00 87 1029.1
20200122065336 21 249 3.0 0.0 0.00 0.00 0.00 87 1029.1
20200122064833 21 277 3.0 0.0 0.00 0.00 0.00 87 1029.1
20200122064349 21 276 3.0 0.0 0.00 0.00 0.00 87 1029.1
20200122063843 21 38 3.0 0.0 0.00 0.00 0.00 87 1029.0
20200122063341 21 273 3.0 0.0 0.00 0.00 0.00 87 1029.1
20200122062844 21 248 3.0 0.0 0.00 0.00 0.00 87 1029.2
20200122062344 21 29 3.0 0.0 0.00 0.00 0.00 87 1029.3
20200122061857 21 286 3.0 0.0 0.00 0.00 0.00 87 1029.3
20200122061341 21 265 4.0 0.0 0.00 0.00 0.00 87 1029.3
20200122060839 21 259 4.0 0.0 0.00 0.00 0.00 87 1029.4
20200122060327 21 259 3.0 0.0 0.00 0.00 0.00 87 1029.4
20200122055842 21 273 3.0 0.0 0.00 0.00 0.00 87 1029.4
20200122055341 21 267 3.0 0.0 0.00 0.00 0.00 87 1029.4
20200122054837 21 228 3.0 0.0 0.00 0.00 0.00 87 1029.6
20200122054331 21 221 2.0 0.0 0.00 0.00 0.00 87 1029.7
20200122053849 21 268 2.0 0.0 0.00 0.00 0.00 86 1029.8
20200122053347 22 247 2.0 0.0 0.00 0.00 0.00 86 1029.8
20200122052842 22 244 3.0 0.0 0.00 0.00 0.00 86 1030.0
20200122052340 22 223 4.0 0.0 0.00 0.00 0.00 86 1030.0
20200122051855 22 235 4.0 0.0 0.00 0.00 0.00 86 1030.1
20200122051340 22 242 3.0 0.0 0.00 0.00 0.00 86 1030.1
20200122050841 22 266 3.0 0.0 0.00 0.00 0.00 86 1030.1
20200122050338 22 274 3.0 0.0 0.00 0.00 0.00 86 1030.1
20200122045826 22 279 3.0 0.0 0.00 0.00 0.00 85 1030.1
20200122045332 22 261 3.0 0.0 0.00 0.00 0.00 85 1030.3
20200122044851 22 214 3.0 0.0 0.00 0.00 0.00 85 1030.3
20200122044346 22 241 3.0 0.0 0.00 0.00 0.00 85 1030.1
20200122043841 22 263 3.0 0.0 0.00 0.00 0.00 85 1030.1
20200122043339 23 193 3.0 0.0 0.00 0.00 0.00 85 1030.1
20200122042837 23 38 3.0 0.0 0.00 0.00 0.00 85 1030.0
20200122042332 23 244 3.0 0.0 0.00 0.00 0.00 85 1030.0
20200122041850 23 259 3.0 0.0 0.00 0.00 0.00 84 1030.0
20200122041343 23 288 3.0 0.0 0.00 0.00 0.00 84 1030.1
20200122040842 23 285 3.0 0.0 0.00 0.00 0.00 84 1030.1
20200122040338 23 345 3.0 0.0 0.00 0.00 0.00 84 1030.2
20200122035831 23 251 3.0 0.0 0.00 0.00 0.00 84 1030.3
20200122035333 23 336 3.0 0.0 0.00 0.00 0.00 83 1030.2
20200122034851 23 299 3.0 0.0 0.00 0.00 0.00 84 1030.3
20200122034346 23 337 2.0 0.0 0.00 0.00 0.00 83 1030.4
20200122033841 23 327 3.0 0.0 0.00 0.00 0.00 83 1030.4
20200122033343 23 316 3.0 0.0 0.00 0.00 0.00 83 1030.4
20200122032838 23 279 2.0 0.0 0.00 0.00 0.00 83 1030.6
20200122032334 23 288 2.0 0.0 0.00 0.00 0.00 82 1030.6
20200122031832 23 27 3.0 0.0 0.00 0.00 0.00 83 1030.8
20200122031347 23 296 2.0 0.0 0.00 0.00 0.00 82 1030.8
20200122030842 23 315 2.0 0.0 0.00 0.00 0.00 83 1030.9
20200122030337 23 16 2.0 0.0 0.00 0.00 0.00 83 1031.0
20200122025847 23 242 2.0 0.0 0.00 0.00 0.00 83 1031.0
20200122025343 23 279 2.0 0.0 0.00 0.00 0.00 83 1031.1
20200122024841 23 232 2.0 0.0 0.00 0.00 0.00 82 1031.2
20200122024335 23 277 2.0 0.0 0.00 0.00 0.00 82 1031.3
20200122023830 23 242 2.0 0.0 0.00 0.00 0.00 82 1031.3
20200122023352 23 236 2.0 0.0 0.00 0.00 0.00 82 1031.4
20200122022846 23 254 2.0 0.0 0.00 0.00 0.00 82 1031.4
20200122022341 24 214 1.0 0.0 0.00 0.00 0.00 82 1031.6
20200122021842 24 268 2.0 0.0 0.00 0.00 0.00 82 1031.6
20200122021341 24 263 1.0 0.0 0.00 0.00 0.00 81 1031.6
20200122020836 24 219 2.0 0.0 0.00 0.00 0.00 81 1031.7
20200122020337 24 227 2.0 0.0 0.00 0.00 0.00 81 1031.7
20200122015846 24 227 2.0 0.0 0.00 0.00 0.00 81 1031.8
20200122015341 24 240 3.0 0.0 0.00 0.00 0.00 81 1031.7
20200122014841 24 239 4.0 0.0 0.00 0.00 0.00 81 1031.9
20200122014336 24 248 5.0 0.0 0.00 0.00 0.00 81 1031.9
20200122013835 24 242 5.0 0.0 0.00 0.00 0.00 81 1031.8
20200122013333 24 242 5.0 0.0 0.00 0.00 0.00 81 1031.8
20200122012848 24 241 5.0 0.0 0.00 0.00 0.00 81 1031.8
20200122012343 24 242 5.0 0.0 0.00 0.00 0.00 81 1031.8
20200122011841 24 250 5.0 0.0 0.00 0.00 0.00 80 1031.9
20200122011336 24 250 5.0 0.0 0.00 0.00 0.00 80 1031.9
20200122010830 24 245 5.0 0.0 0.00 0.00 0.00 80 1032.0
20200122010346 24 244 5.0 0.0 0.00 0.00 0.00 80 1032.0
20200122005836 25 236 6.0 0.0 0.00 0.00 0.00 80 1032.0
20200122005334 25 243 6.0 0.0 0.00 0.00 0.00 80 1032.0
20200122004835 25 233 6.0 0.0 0.00 0.00 0.00 80 1032.1
20200122004332 25 256 6.0 0.0 0.00 0.00 0.00 79 1032.0
20200122003848 25 242 6.0 0.0 0.00 0.00 0.00 79 1032.0
20200122003346 25 248 6.0 0.0 0.00 0.00 0.00 79 1032.0
20200122002844 25 244 6.0 0.0 0.00 0.00 0.00 79 1032.1
20200122002339 25 254 6.0 0.0 0.00 0.00 0.00 79 1032.1
20200122001836 25 242 7.0 0.0 0.00 0.00 0.00 79 1032.1
20200122001331 25 242 7.0 0.0 0.00 0.00 0.00 79 1032.2
20200122000846 25 253 7.0 0.0 0.00 0.00 0.00 79 1032.2
20200122000341 26 252 7.0 0.0 0.00 0.00 0.00 79 1032.2
20200121235831 26 243 7.0 0.0 0.00 0.00 0.00 79 1032.3
20200121235346 26 246 6.0 0.0 0.00 0.00 0.00 79 1032.2
20200121234847 26 243 6.0 0.0 0.00 0.00 0.00 78 1032.1
20200121234341 26 249 6.0 0.0 0.00 0.00 0.00 78 1032.2
20200121233841 26 248 7.0 0.0 0.00 0.00 0.00 78 1032.2
20200121233341 26 245 7.0 0.0 0.00 0.00 0.00 78 1032.2
20200121232839 26 246 7.0 0.0 0.00 0.00 0.00 78 1032.4
20200121232334 26 255 7.0 0.0 0.00 0.00 0.00 78 1032.3
20200121231832 26 244 6.0 0.0 0.00 0.00 0.00 77 1032.4
20200121231347 27 245 6.0 0.0 0.00 0.00 0.00 76 1032.3
20200121230841 27 254 6.0 0.0 0.00 0.00 0.00 76 1032.3
20200121230337 27 238 5.0 0.0 0.00 0.00 0.00 76 1032.3
20200121225846 27 250 3.0 0.0 0.00 0.00 0.00 75 1032.3
20200121225341 28 262 3.0 0.0 0.00 0.00 0.00 75 1032.3
20200121224842 28 223 4.0 0.0 0.00 0.00 0.00 75 1032.3
20200121224337 28 236 4.0 0.0 0.00 0.00 0.00 74 1032.3
20200121223835 28 238 4.0 0.0 0.00 0.00 0.00 74 1032.3
20200121223413 28 238 5.0 0.0 0.00 0.00 0.00 74 1032.3
20200121222845 28 217 6.0 0.0 0.00 0.00 0.00 73 1032.4
20200121222343 28 233 5.0 0.0 0.00 0.00 0.00 73 1032.4
20200121221841 29 243 4.0 0.0 0.00 0.00 0.00 73 1032.2
20200121221335 29 242 4.0 0.0 0.00 0.00 0.00 73 1032.3
20200121220834 29 240 5.0 0.0 0.00 0.00 0.00 72 1032.3
20200121220331 29 223 5.0 0.0 0.00 0.00 0.00 72 1032.4
20200121215839 29 233 4.0 0.0 0.00 0.00 0.00 72 1032.5
20200121215334 29 220 4.0 0.0 0.00 0.00 0.00 72 1032.6
20200121214835 29 171 5.0 0.0 0.00 0.00 0.00 72 1032.6
20200121214350 29 234 6.0 0.0 0.00 0.00 0.00 72 1032.5
20200121213846 29 236 5.0 0.0 0.00 0.00 0.00 72 1032.6
20200121213344 29 233 4.0 0.0 0.00 0.00 0.00 72 1032.6
20200121212838 29 251 5.0 0.0 0.00 0.00 0.00 72 1032.6
20200121212332 29 228 5.0 0.0 0.00 0.00 0.00 72 1032.6
20200121211851 29 233 6.0 0.0 0.00 0.00 0.00 72 1032.7
20200121211346 29 247 7.0 0.0 0.00 0.00 0.00 72 1032.7
20200121210843 29 246 7.0 0.0 0.00 0.00 0.00 72 1032.7
20200121210338 29 236 8.0 0.0 0.00 0.00 0.00 72 1032.7
20200121205848 29 242 9.0 0.0 0.00 0.00 0.00 71 1032.7
20200121205342 29 249 9.0 0.0 0.00 0.00 0.00 71 1032.8
20200121204840 28 240 9.0 0.0 0.00 0.00 0.00 72 1032.7
20200121204338 28 242 10.0 0.0 0.00 0.00 0.00 71 1032.8
20200121203834 28 245 10.0 0.0 0.00 0.00 0.00 71 1032.8
20200121203332 28 244 11.0 0.0 0.00 0.00 0.00 71 1032.8
20200121202846 28 263 11.0 0.0 0.00 0.00 0.00 72 1032.6
20200121202341 28 240 10.0 0.0 0.00 0.00 0.00 72 1032.7
20200121201843 28 246 10.0 0.0 0.00 0.00 0.00 71 1032.7
20200121201339 28 250 10.0 0.0 0.00 0.00 0.00 71 1032.6
20200121200835 28 273 11.0 0.0 0.00 0.00 0.00 71 1032.6
20200121200331 28 248 10.0 0.0 0.00 0.00 0.00 71 1032.6
20200121195840 28 248 8.0 0.0 0.00 0.00 0.00 71 1032.6
20200121195336 28 238 8.0 0.0 0.00 0.00 0.00 72 1032.6
20200121194834 28 232 10.0 0.0 0.00 0.00 0.00 72 1032.7
20200121194348 27 236 10.0 0.0 0.00 0.00 0.00 72 1032.7
20200121193846 27 257 10.0 0.0 0.00 0.00 0.00 72 1032.7
20200121193344 27 240 11.0 0.0 0.00 0.00 0.00 73 1032.8
20200121192841 27 249 11.0 0.0 0.00 0.00 0.00 72 1032.9
20200121192343 27 250 11.0 0.0 0.00 0.00 0.00 72 1033.0
20200121191841 27 241 11.0 0.0 0.00 0.00 0.00 71 1033.0
20200121191339 27 236 10.0 0.0 0.00 0.00 0.00 72 1033.1
20200121190833 27 249 11.0 0.0 0.00 0.00 0.00 72 1033.0
20200121190328 27 240 10.0 0.0 0.00 0.00 0.00 72 1033.1
20200121185836 26 236 11.0 0.0 0.00 0.00 0.00 73 1033.2
20200121185334 26 243 12.0 0.0 0.00 0.00 0.00 72 1033.3
20200121184832 26 241 12.0 0.0 0.00 0.00 0.00 72 1033.4
20200121184346 26 246 11.0 0.0 0.00 0.00 0.00 72 1033.5
20200121183841 26 256 11.0 0.0 0.00 0.00 0.00 72 1033.6
20200121183342 26 242 11.0 0.0 0.00 0.00 0.00 72 1033.6
20200121182837 26 244 10.0 0.0 0.00 0.00 0.00 73 1033.6
20200121182333 25 250 10.0 0.0 0.00 0.00 0.00 73 1033.7
20200121181830 25 238 10.0 0.0 0.00 0.00 0.00 73 1033.8
20200121181348 25 252 10.0 0.0 0.00 0.00 0.00 73 1033.8
20200121180827 25 239 10.0 0.0 0.00 0.00 0.00 73 1034.0
20200121180329 25 241 9.0 0.0 0.00 0.00 0.00 73 1034.1
20200121175838 25 262 9.0 0.0 0.00 0.00 0.00 73 1034.2
20200121175334 24 240 10.0 0.0 0.00 0.00 0.00 73 1034.4
20200121174832 24 241 9.0 0.0 0.00 0.00 0.00 73 1034.5
20200121174346 24 254 9.0 0.0 0.00 0.00 0.00 73 1034.6
20200121173841 24 234 9.0 0.0 0.00 0.00 0.00 73 1034.7
20200121173339 24 243 9.0 0.0 0.00 0.00 0.00 73 1034.7
20200121172835 24 250 8.0 0.0 0.00 0.00 0.00 72 1034.8
20200121172330 24 242 7.0 0.0 0.00 0.00 0.00 72 1034.9
20200121171851 24 222 8.0 0.0 0.00 0.00 0.00 73 1034.8
20200121171346 24 256 10.0 0.0 0.00 0.00 0.00 72 1034.9
20200121170841 24 243 8.0 0.0 0.00 0.00 0.00 72 1035.0
20200121170335 24 248 7.0 0.0 0.00 0.00 0.00 72 1035.2
20200121165846 24 244 7.0 0.0 0.00 0.00 0.00 72 1035.1
20200121165341 24 247 7.0 0.0 0.00 0.00 0.00 72 1035.1
20200121164842 24 244 5.0 0.0 0.00 0.00 0.00 72 1035.2
20200121164341 24 229 3.0 0.0 0.00 0.00 0.00 73 1035.3
20200121163836 23 226 4.0 0.0 0.00 0.00 0.00 73 1035.3
20200121163334 23 275 4.0 0.0 0.00 0.00 0.00 73 1035.4
20200121162827 23 248 4.0 0.0 0.00 0.00 0.00 74 1035.5
20200121162342 23 219 5.0 0.0 0.00 0.00 0.00 73 1035.7
20200121161841 23 267 5.0 0.0 0.00 0.00 0.00 73 1035.7
20200121161339 23 242 5.0 0.0 0.00 0.00 0.00 73 1035.9
20200121160834 23 262 3.0 0.0 0.00 0.00 0.00 73 1035.9
20200121160329 23 250 3.0 0.0 0.00 0.00 0.00 74 1035.9
20200121155839 22 273 4.0 0.0 0.00 0.00 0.00 74 1035.9
20200121155334 22 258 5.0 0.0 0.00 0.00 0.00 73 1035.8
20200121154832 22 255 6.0 0.0 0.00 0.00 0.00 73 1035.8
20200121154346 22 248 6.0 0.0 0.00 0.00 0.00 73 1035.9
20200121153842 22 300 6.0 0.0 0.00 0.00 0.00 73 1036.0
20200121153340 22 287 5.0 0.0 0.00 0.00 0.00 73 1036.1
20200121152835 22 270 4.0 0.0 0.00 0.00 0.00 73 1036.0
20200121152334 22 290 5.0 0.0 0.00 0.00 0.00 73 1036.1
20200121151832 22 284 6.0 0.0 0.00 0.00 0.00 73 1036.0
20200121151347 21 290 6.0 0.0 0.00 0.00 0.00 73 1035.9
20200121150841 21 248 5.0 0.0 0.00 0.00 0.00 73 1035.8
20200121150336 21 323 4.0 0.0 0.00 0.00 0.00 73 1035.9
20200121145846 21 292 3.0 0.0 0.00 0.00 0.00 73 1035.9
20200121145341 21 293 3.0 0.0 0.00 0.00 0.00 73 1035.8
20200121144839 21 296 3.0 0.0 0.00 0.00 0.00 73 1035.9
20200121144333 21 334 4.0 0.0 0.00 0.00 0.00 73 1035.8
20200121143828 21 323 4.0 0.0 0.00 0.00 0.00 73 1035.9
20200121143350 21 296 4.0 0.0 0.00 0.00 0.00 73 1035.8
20200121142843 21 283 4.0 0.0 0.00 0.00 0.00 73 1035.6
20200121142340 21 315 4.0 0.0 0.00 0.00 0.00 74 1035.6
20200121141837 21 283 4.0 0.0 0.00 0.00 0.00 74 1035.5
20200121141331 21 309 4.0 0.0 0.00 0.00 0.00 74 1035.5
20200121140846 21 312 4.0 0.0 0.00 0.00 0.00 74 1035.5
20200121140342 21 302 3.0 0.0 0.00 0.00 0.00 74 1035.4
20200121135836 21 312 3.0 0.0 0.00 0.00 0.00 74 1035.5
20200121135334 21 317 3.0 0.0 0.00 0.00 0.00 75 1035.4
20200121134832 20 317 3.0 0.0 0.00 0.00 0.00 75 1035.4
20200121134346 20 309 2.0 0.0 0.00 0.00 0.00 75 1035.4
20200121133845 20 309 2.0 0.0 0.00 0.00 0.00 75 1035.4
20200121133342 20 287 3.0 0.0 0.00 0.00 0.00 74 1035.3
20200121132839 20 286 3.0 0.0 0.00 0.00 0.00 74 1035.4
20200121132334 20 305 4.0 0.0 0.00 0.00 0.00 74 1035.4
20200121131832 21 298 3.0 0.0 0.00 0.00 0.00 74 1035.6
20200121131346 21 317 4.0 0.0 0.00 0.00 0.00 74 1035.7
20200121130841 21 298 4.0 0.0 0.00 0.00 0.00 74 1035.5
20200121130339 21 307 5.0 0.0 0.00 0.00 0.00 74 1035.5
20200121125831 21 315 5.0 0.0 0.00 0.00 0.00 74 1035.6
20200121125347 21 290 5.0 0.0 0.00 0.00 0.00 74 1035.6
20200121124845 21 327 5.0 0.0 0.00 0.00 0.00 74 1035.6
20200121124340 21 320 5.0 0.0 0.00 0.00 0.00 74 1035.5
20200121123842 21 321 5.0 0.0 0.00 0.00 0.00 75 1035.5
20200121123342 21 327 5.0 0.0 0.00 0.00 0.00 75 1035.5
20200121122840 21 349 6.0 0.0 0.00 0.00 0.00 75 1035.6
20200121122335 21 332 6.0 0.0 0.00 0.00 0.00 75 1035.6
20200121121831 21 335 5.0 0.0 0.00 0.00 0.00 75 1035.6
20200121121346 21 330 5.0 0.0 0.00 0.00 0.00 75 1035.6
20200121120841 21 327 6.0 0.0 0.00 0.00 0.00 75 1035.6
20200121120336 22 317 6.0 0.0 0.00 0.00 0.00 75 1035.6
20200121115846 22 342 5.0 0.0 0.00 0.00 0.00 74 1035.7
20200121115341 22 360 5.0 0.0 0.00 0.00 0.00 74 1035.6
20200121114841 22 5 4.0 0.0 0.00 0.00 0.00 74 1035.5
20200121114339 22 325 3.0 0.0 0.00 0.00 0.00 74 1035.5
20200121113834 22 325 3.0 0.0 0.00 0.00 0.00 75 1035.3
20200121113352 22 325 3.0 0.0 0.00 0.00 0.00 74 1035.2
20200121112846 22 329 3.0 0.0 0.00 0.00 0.00 74 1035.3
20200121112342 22 323 3.0 0.0 0.00 0.00 0.00 74 1035.2
20200121111846 22 309 4.0 0.0 0.00 0.00 0.00 74 1035.2
20200121111340 22 315 4.0 0.0 0.00 0.00 0.00 74 1035.0
20200121110835 22 305 4.0 0.0 0.00 0.00 0.00 74 1035.0
20200121110330 23 307 3.0 0.0 0.00 0.00 0.00 74 1034.9
20200121105842 23 308 3.0 0.0 0.00 0.00 0.00 74 1034.9
20200121105337 23 346 3.0 0.0 0.00 0.00 0.00 74 1034.9
20200121104838 23 307 4.0 0.0 0.00 0.00 0.00 74 1034.8
20200121104331 23 302 5.0 0.0 0.00 0.00 0.00 74 1034.9
20200121103847 23 300 4.0 0.0 0.00 0.00 0.00 74 1034.9
20200121103345 23 302 4.0 0.0 0.00 0.00 0.00 74 1034.9
20200121102839 23 286 4.0 0.0 0.00 0.00 0.00 73 1034.8
20200121102334 23 249 4.0 0.0 0.00 0.00 0.00 73 1034.8